Hourly Data Report for August 21, 2017

All times are specified in Local Standard Time (LST). Add 1 hour to adjust for Daylight Saving Time where and when it is observed.

ST. STEPHEN
NEW BRUNSWICK

45°12'36.600" N
67°15'10.300" W
26.10 m
8104935
71607
WSS

Download Data

Hourly Data (August 2017)
Hourly Data Report for August 21, 2017
Temp Definition
°C
Dew Point Temp Definition
°C
Rel Hum Definition
%
Wind Dir Definition
10's deg

Wind Spd Definition
km/h
Visibility Definition
km
Stn Press Definition
kPa
Hmdx Definition


Wind Chill Definition


Weather Definition


TIME
00:00 13.1 12.2 95   0   101.22     LegendNANA
01:00 12.7 11.9 95   0   101.25     LegendNANA
02:00 12.5 11.8 95   0   101.26     LegendNANA
03:00 12.6 11.9 96 0 1   101.28     LegendNANA
04:00 12.4 11.7 96 0 1   101.31     LegendNANA
05:00 12.1 11.5 96   0   101.35     LegendNANA
06:00 11.8 11.3 96 0 1   101.41     LegendNANA
07:00 14.7 14.2 96 27 2   101.45     LegendNANA
08:00 18.3 15.5 84 26 6   101.47     LegendNANA
09:00 21.6 16.2 71 27 11   101.46 26   LegendNANA
10:00 24.2 16.9 64 25 8   101.38 29   LegendNANA
11:00 25.8 16.3 56 26 10   101.35 31   LegendNANA
12:00 27.1 16.2 52 24 10   101.29 32   LegendNANA
13:00 27.9 14.7 45 24 15   101.28 32   LegendNANA
14:00 28.2 14.9 44 24 16   101.23 32   LegendNANA
15:00 27.4 15.7 49 26 9   101.19 32   LegendNANA
16:00 27.8 15.8 48 26 12   101.17 32   LegendNANA
17:00 27.7 15.4 47 24 19   101.15 32   LegendNANA
18:00 27.0 16.3 52 24 12   101.15 32   LegendNANA
19:00 25.6 16.8 58 21 8   101.17 31   LegendNANA
20:00 23.4 17.2 68 19 7   101.16 29   LegendNANA
21:00 22.1 16.9 72 23 3   101.22 27   LegendNANA
22:00 19.7 16.1 80   0   101.19     LegendNANA
23:00 18.4 15.8 85 22 5   101.18     LegendNANA

Notes on Data Quality.

Legend

  • E = Estimated
  • M = Missing
  • NA = Not Available
  • ‡ = Partner data that is not subject to review by the National Climate Archives
Date modified: